RH
52 54 57 58 59 58 60 59 57 62 60 61 68 70 71 75 75 70 68 67 66 63 62 62 58 58 59 58 61 62 63 64 64 59 58 61 60 53 49 45 41 41 41 42 44 45 45 45 46 45 46 46 51 59 67 82 92 89 84 84 86 82 76 75 75 76 78 80 85 88 95 99 98 98 91 90 92 93 92 88 83 78 73 66 57 48 41 37 34 34 35 36 35 32 31 31 31
55 58 60 61 63 60 62 63 60 65 65 67 74 74 79 84 79 73 71 71 69 66 65 66 64 64 64 62 63 62 65 67 66 62 61 62 60 57 52 46 41 39 39 39 40 41 42 43 43 43 42 42 48 63 69 76 94 94 87 87 89 86 81 80 77 79 84 83 87 96 100 100 99 99 95 93 93 93 95 94 91 87 82 78 72 64 56 48 42 37 35 36 37 37 36 36 36
59 61 63 64 66 65 64 65 64 70 73 75 79 78 82 84 79 75 76 74 70 67 65 66 66 69 69 68 70 67 68 72 68 65 63 66 65 64 62 57 52 46 42 41 40 39 39 40 41 40 40 39 43 60 68 77 94 94 87 86 91 91 86 87 84 84 89 88 92 98 99 100 100 98 96 96 94 91 94 94 93 93 89 87 83 78 72 63 55 48 42 39 39 41 41 41 42
60 62 64 65 66 68 68 70 72 72 73 76 80 80 80 79 78 79 79 74 68 66 64 63 64 69 71 72 76 73 72 74 74 71 68 73 73 74 74 70 65 59 54 48 43 42 39 39 40 39 39 37 43 59 67 81 90 85 84 85 93 94 89 93 93 92 92 90 95 97 99 100 100 99 97 98 95 90 94 96 94 94 93 92 89 86 83 77 70 61 53 46 42 42 44 45 45
62 63 65 65 65 68 67 69 70 67 68 75 78 79 80 78 79 76 73 71 67 64 63 62 63 67 72 77 77 75 76 75 78 78 73 77 79 80 83 80 77 72 68 62 54 48 42 44 46 42 41 39 57 75 70 78 86 84 86 86 93 90 87 96 95 97 98 94 96 97 98 99 99 101 99 100 98 94 97 98 96 97 97 95 93 90 89 87 82 75 67 58 51 47 48 50 50
64 64 64 62 61 60 57 59 62 64 70 75 74 76 78 72 68 66 60 56 51 47 48 50 53 56 65 75 75 75 77 74 77 81 77 78 79 80 83 84 84 82 79 75 68 59 50 53 58 56 51 42 65 91 80 78 85 85 86 88 91 81 78 90 88 94 101 98 98 99 99 97 96 97 99 101 100 99 99 98 98 100 100 98 96 95 93 92 90 86 80 73 65 58 55 56 57
63 59 57 54 52 50 48 55 62 66 70 72 72 73 69 57 51 50 43 37 34 32 33 34 36 38 43 51 56 62 67 68 73 78 78 80 81 82 84 85 87 87 85 83 78 70 62 59 58 66 74 69 78 97 92 84 84 84 85 88 90 81 74 78 78 87 99 100 100 100 101 99 94 93 96 99 99 100 100 100 100 100 100 99 98 97 96 96 95 93 89 84 78 70 65 64 63
58 52 48 44 42 43 45 52 57 60 60 59 61 61 53 43 38 35 31 29 30 31 31 31 30 30 31 32 34 38 43 47 54 60 65 70 78 85 87 86 88 90 88 88 85 79 74 68 60 65 77 84 91 100 102 94 88 88 88 87 86 83 76 74 73 77 86 92 99 101 100 101 96 92 93 95 96 94 94 96 98 100 101 100 99 99 98 99 98 98 95 92 87 80 73 70 68
50 42 38 33 34 42 45 49 47 47 50 50 50 48 43 36 26 23 24 25 27 28 30 31 31 32 33 32 31 31 30 30 33 37 41 48 61 78 89 91 90 91 91 93 93 89 85 78 69 64 62 73 90 96 101 99 95 95 94 91 87 82 79 76 74 71 72 76 93 102 99 101 98 94 92 90 91 90 90 89 91 95 98 100 100 100 100 99 100 100 100 97 93 86 80 74 72
34 28 25 22 25 32 38 45 41 37 39 42 46 41 32 24 16 15 16 16 18 19 20 23 25 30 34 36 36 32 30 30 29 28 29 32 41 58 79 92 96 93 92 94 97 97 95 88 77 68 64 75 90 93 95 97 98 100 98 97 94 89 83 78 76 74 70 68 87 103 99 99 98 97 95 91 91 94 97 95 94 90 89 93 95 98 100 99 99 99 99 99 97 92 86 79 76
20 17 16 14 13 15 23 35 35 32 27 24 26 20 13 11 12 13 10 9 11 11 12 14 17 22 29 36 37 32 28 29 32 32 30 30 31 37 49 68 88 97 96 94 96 97 94 90 81 72 72 79 85 85 84 87 91 97 99 100 100 97 88 81 79 77 73 67 78 94 100 100 99 100 99 97 97 99 100 100 100 91 86 89 89 91 94 97 99 98 96 96 98 98 95 89 86
13 12 13 10 8 8 12 17 16 17 13 7 7 5 5 6 7 8 6 6 7 7 9 11 12 14 20 29 30 25 22 23 29 33 34 35 35 34 34 39 57 82 98 99 95 95 93 91 87 83 84 86 86 86 83 83 88 93 98 100 100 99 93 87 83 79 77 72 70 78 87 91 95 100 101 100 99 100 100 100 100 96 92 94 94 91 93 97 96 96 95 93 94 95 94 90 86
9 9 9 7 6 5 5 7 5 5 4 4 4 4 4 4 5 4 5 5 5 5 5 7 8 9 14 20 20 16 17 18 21 27 31 36 39 39 38 35 35 51 77 96 98 95 97 98 96 95 97 96 94 93 94 94 92 94 100 100 99 98 92 88 87 85 82 79 75 74 74 73 78 91 99 101 100 99 100 100 100 99 99 99 100 98 99 97 91 94 98 96 94 93 92 88 81
7 5 5 4 4 4 4 4 3 3 4 4 4 4 4 4 5 4 5 5 5 5 5 6 6 8 8 14 19 19 21 21 20 23 25 29 34 37 39 40 36 35 46 69 89 95 98 99 99 99 100 100 98 96 97 100 97 96 99 99 98 96 90 89 91 91 90 87 83 78 75 71 71 79 89 97 101 100 98 98 96 96 99 100 100 99 100 97 92 96 100 100 99 97 96 95 90
4 4 4 4 4 3 4 4 4 4 4 3 3 4 4 4 5 5 5 5 6 5 6 6 6 8 6 11 19 18 17 17 16 18 20 23 27 31 36 38 40 39 37 43 60 78 89 96 99 100 100 99 101 100 98 100 98 97 100 99 99 99 96 95 96 96 98 97 90 83 79 76 74 77 84 90 96 100 99 100 98 96 99 101 101 99 100 100 97 98 100 100 101 100 100 100 98
4 4 4 4 4 3 3 3 3 3 3 3 3 3 3 4 4 4 5 5 6 6 6 6 6 8 6 7 9 8 7 8 10 13 16 20 24 27 30 33 37 40 41 39 41 50 62 72 82 92 100 101 100 100 100 100 99 99 99 95 97 101 100 99 99 99 100 101 96 89 84 80 78 81 84 86 89 93 97 99 98 97 99 100 100 100 99 100 99 99 99 99 100 99 98 100 100
4 4 4 4 3 3 3 3 2 3 3 2 2 3 3 3 3 4 5 6 6 6 6 6 6 6 7 6 5 5 5 5 7 9 11 15 20 24 26 28 31 36 39 40 40 40 42 46 51 61 75 90 98 100 100 99 100 99 97 96 99 102 100 99 99 99 100 101 100 95 89 86 87 86 85 84 83 86 91 94 94 92 95 99 99 100 100 100 100 100 100 98 99 99 97 98 100
4 4 3 3 3 3 3 3 3 3 3 3 3 3 3 2 3 3 4 6 6 6 6 6 6 6 6 6 5 5 5 5 6 7 8 11 14 19 23 25 26 29 33 36 38 38 39 41 42 43 46 57 72 81 89 94 98 100 99 99 100 101 100 100 100 100 99 99 100 96 90 89 93 94 91 88 83 84 89 93 95 93 96 100 98 98 100 100 100 100 101 100 100 100 100 98 98
3 3 3 3 3 3 3 3 3 3 4 4 4 3 3 3 3 3 4 6 7 6 7 6 6 6 6 6 6 6 6 6 6 6 6 7 8 10 14 18 19 21 25 29 32 33 35 38 41 43 42 42 44 52 70 83 89 94 100 101 100 101 101 100 100 101 100 100 100 96 92 92 95 97 98 96 89 90 92 93 94 91 93 100 100 98 99 100 100 100 99 99 98 100 101 100 98
3 3 3 3 3 3 3 3 3 4 4 4 4 4 4 4 4 4 3 5 7 6 5 5 5 6 7 7 6 7 7 6 6 7 6 6 6 6 7 9 11 13 16 21 27 32 34 35 36 38 41 44 42 44 52 59 61 64 77 90 93 94 98 98 98 100 100 99 100 99 98 97 98 99 99 98 95 97 98 97 97 94 94 99 101 100 100 100 100 100 99 99 99 99 100 100 99
3 3 3 3 3 3 3 4 4 4 4 4 5 4 4 4 4 4 4 4 6 5 4 4 6 7 8 8 7 7 8 7 7 6 6 7 6 6 6 6 7 8 9 12 20 30 33 34 35 35 37 40 43 46 45 44 47 43 46 57 61 65 72 76 84 97 102 100 100 100 100 100 100 100 100 100 99 100 101 99 100 99 99 100 101 101 100 100 100 100 100 100 100 100 100 100 100
3 3 4 3 3 3 3 3 4 4 4 4 4 4 4 4 4 4 4 4 4 4 5 5 6 7 7 7 7 6 7 7 7 7 7 7 7 6 6 6 6 6 6 7 12 19 25 29 33 35 36 38 41 46 48 47 49 46 42 43 43 46 49 50 60 78 89 94 97 97 98 99 100 101 100 101 100 100 101 100 100 101 101 100 100 101 100 100 101 101 100 100 101 100 100 100 100
4 4 4 4 4 4 4 3 3 3 4 4 4 4 4 4 4 4 4 4 4 5 5 5 5 5 6 5 5 5 5 6 6 6 6 6 6 6 6 6 6 6 6 6 7 9 12 16 22 26 29 36 40 41 46 48 50 51 50 49 47 47 48 47 49 56 63 71 78 83 87 90 95 100 100 100 101 101 100 99 99 99 101 101 100 100 100 100 100 101 100 100 100 100 100 100 100
4 4 4 4 4 4 4 4 3 3 3 4 3 3 4 4 4 4 4 4 4 5 5 5 5 5 5 5 5 4 4 5 5 5 5 6 6 6 7 7 6 6 6 6 6 5 6 7 9 12 16 28 36 38 44 49 52 53 55 56 55 55 55 55 54 55 60 64 67 68 71 77 81 85 90 93 96 98 99 99 97 98 100 101 101 100 100 100 100 100 100 100 100 100 100 99 98
4 5 5 4 5 4 4 4 4 4 4 4 4 4 4 3 4 4 4 5 4 5 5 5 5 5 5 5 5 6 6 5 5 6 6 6 6 6 7 7 7 7 7 6 6 6 6 6 5 6 9 16 23 30 37 45 50 51 54 59 60 62 64 65 65 65 67 68 71 72 74 78 77 75 74 77 82 87 91 94 96 97 99 100 100 100 99 99 99 98 98 97 96 96 96 96 95
5 5 5 5 5 5 5 5 5 5 5 5 5 5 4 4 5 5 4 5 4 5 5 6 6 6 6 6 6 6 6 6 6 6 6 6 6 7 7 7 7 7 8 7 7 7 6 6 6 6 6 8 10 14 22 31 37 42 51 58 59 60 61 63 64 66 64 63 73 85 90 93 92 88 79 72 72 75 77 81 85 89 93 96 96 97 96 95 95 95 95 93 91 88 87 86 85
5 5 5 5 5 5 5 5 6 6 6 7 7 5 5 5 5 5 5 5 6 5 6 6 6 6 6 6 7 7 7 7 8 7 8 7 7 7 7 7 7 7 8 8 8 8 8 7 7 7 6 6 6 7 13 19 21 29 43 56 66 67 60 61 63 66 67 70 81 90 94 97 98 98 95 88 78 73 72 72 73 76 79 84 87 89 90 90 92 94 95 94 92 88 85 83 80
5 5 5 5 5 5 5 5 6 6 7 7 7 6 5 6 6 6 6 6 6 6 6 6 6 6 7 7 6 7 7 7 8 8 8 9 9 9 9 9 9 8 8 8 8 8 8 8 8 8 7 7 7 6 8 11 13 20 30 41 57 64 62 67 77 83 87 91 94 95 98 100 100 102 101 92 79 71 71 70 70 70 70 72 74 76 79 81 84 88 90 92 93 92 91 89 87
5 5 5 5 5 5 6 6 6 6 7 8 8 7 6 6 6 6 6 7 7 7 7 7 7 8 8 8 8 8 8 8 8 9 9 9 10 10 10 10 10 10 10 10 10 9 9 8 8 8 8 7 7 7 7 7 9 12 17 20 31 47 52 59 76 85 87 90 92 93 96 97 97 96 88 77 69 65 65 66 68 68 68 68 68 68 69 70 72 75 77 80 83 85 87 88 89
5 5 5 5 5 6 6 6 7 7 7 8 9 8 7 7 7 7 8 9 9 10 9 10 11 11 11 11 11 11 11 11 11 12 12 12 12 12 12 12 12 12 12 12 12 11 11 9 9 8 8 8 7 7 7 7 8 8 10 10 16 28 31 36 54 63 63 68 74 75 77 79 79 73 67 64 63 63 63 63 64 64 65 65 65 65 64 65 65 65 66 67 69 71 72 74 76
6 6 6 6 6 6 7 7 8 8 9 10 11 12 10 8 9 10 11 12 13 13 13 14 14 14 14 14 14 14 14 15 15 15 15 15 15 15 15 15 15 15 14 14 14 13 13 12 12 10 9 8 8 7 7 7 7 7 8 8 10 13 14 16 25 36 46 58 66 66 58 56 60 61 62 63 61 61 61 61 62 61 62 62 62 62 61 62 62 61 62 62 62 62 63 63 64
7 7 7 7 8 8 8 9 9 10 11 13 14 15 13 9 10 13 14 14 15 16 16 16 17 17 17 17 17 17 17 18 18 17 17 17 18 18 19 19 19 19 18 17 17 16 15 15 15 14 13 11 10 9 8 7 7 6 6 7 6 7 9 8 13 25 42 62 76 78 64 45 39 39 38 41 43 44 44 44 45 46 48 49 50 51 52 52 52 53 52 51 50 49 49 48 46
9 9 9 9 9 10 10 10 11 11 13 15 16 18 17 11 11 16 16 15 17 18 19 19 19 20 19 20 21 21 21 22 22 22 22 22 23 24 25 25 25 25 25 23 22 21 20 19 18 17 16 15 14 13 12 10 9 8 6 6 6 6 6 12 36 48 41 47 60 68 66 44 24 16 13 16 17 17 19 20 21 21 23 25 25 26 27 28 28 28 28 26 25 24 24 23 21
10 10 11 11 11 12 12 12 13 13 14 16 17 19 19 14 12 16 17 16 19 19 20 22 22 22 22 22 24 24 25 26 27 27 27 27 28 29 30 30 30 30 30 30 29 28 27 26 24 23 21 19 18 16 16 14 13 12 10 9 7 7 5 9 37 51 34 26 26 27 30 23 11 6 6 8 8 8 8 9 9 9 10 10 10 11 11 11 11 10 10 10 10 9 9 9 9
11 11 11 12 13 13 14 13 14 15 16 17 18 19 21 18 15 17 18 18 19 21 22 23 25 25 25 25 26 27 28 29 30 31 31 31 31 31 31 31 32 32 32 32 32 32 31 31 30 28 28 27 25 22 20 19 17 16 15 15 12 12 11 7 12 18 17 14 12 11 18 28 25 16 12 8 5 7 5 5 6 5 6 6 6 6 6 6 5 5 6 5 6 5 5 5 5
11 11 11 12 12 14 15 13 14 16 17 18 19 20 21 20 19 19 19 20 21 22 24 25 26 27 27 27 28 28 29 30 31 32 33 34 34 33 31 31 31 31 31 32 32 32 31 31 31 31 31 32 32 30 28 27 25 22 20 19 18 16 16 15 12 10 10 9 8 10 16 30 31 28 36 30 16 12 7 5 6 5 6 5 5 5 5 5 5 5 5 5 5 5 5 5 5
11 11 11 12 12 14 15 14 15 16 17 19 20 21 21 21 22 22 20 21 22 24 26 27 28 29 29 29 29 29 29 30 31 32 34 35 35 34 33 32 31 31 31 31 32 32 31 31 31 31 32 32 33 34 33 33 32 30 30 28 26 24 20 18 17 15 15 14 13 12 10 13 12 16 30 27 16 13 9 7 8 7 8 7 7 7 6 7 6 6 6 6 6 6 6 6 6
11 11 11 11 12 13 14 14 15 16 18 19 19 21 20 19 22 23 21 21 21 23 25 27 28 30 30 31 31 31 31 30 31 32 34 35 34 34 33 33 33 32 33 33 33 33 33 33 33 33 33 33 35 36 36 36 36 35 36 37 35 33 30 26 23 20 19 18 17 17 15 14 12 10 12 12 11 11 10 11 11 10 10 9 9 9 8 8 8 8 8 7 7 7 7 7 7
11 11 11 11 12 12 13 13 14 16 17 18 19 21 20 17 20 22 22 22 22 22 23 25 26 27 29 30 31 31 31 30 31 32 34 35 34 33 32 32 32 33 33 34 35 35 36 37 37 37 36 37 37 38 39 39 40 40 39 40 40 38 37 35 33 29 27 24 22 22 21 20 19 17 15 14 14 13 13 13 13 12 12 12 11 11 11 10 10 10 9 9 9 8 8 8 8
10 11 11 11 12 12 12 12 13 15 15 16 18 19 18 16 18 20 21 22 22 22 22 23 24 24 25 27 28 29 30 30 31 33 34 35 35 33 32 32 32 33 34 35 36 37 39 40 41 41 40 40 41 42 43 43 43 43 42 41 41 40 40 40 39 38 36 32 28 25 24 24 24 23 23 21 20 19 18 17 16 15 14 14 14 13 13 12 12 12 11 11 11 10 11 10 10
10 10 11 11 12 12 12 11 12 13 13 15 15 18 19 16 16 17 18 20 20 21 23 23 23 23 23 24 26 27 28 29 32 34 35 35 35 34 32 32 32 33 34 34 35 37 39 42 43 44 43 44 45 45 45 45 45 45 44 43 43 42 41 41 40 40 40 39 36 33 29 27 25 24 24 23 24 24 23 23 22 20 20 20 18 17 17 16 16 15 15 14 14 14 14 14 14
9 9 10 11 12 12 12 12 12 12 13 13 13 17 19 14 13 15 15 17 18 20 21 22 22 22 22 22 23 25 26 28 30 32 33 33 34 33 32 32 32 33 34 34 35 36 38 40 42 43 44 45 46 48 48 48 48 47 46 45 44 43 43 43 43 42 41 41 41 40 37 34 32 30 28 26 25 25 24 24 23 23 23 23 24 24 24 23 23 22 22 21 21 21 21 20 19
9 10 10 11 11 11 11 11 11 12 13 12 12 16 19 16 14 14 15 16 18 20 21 22 23 24 24 24 24 25 26 27 28 29 30 31 31 31 32 32 32 32 33 34 36 37 38 39 41 42 43 44 45 47 49 50 50 50 49 48 47 46 44 44 44 43 43 43 43 42 42 40 38 37 35 34 31 29 28 27 26 25 24 24 25 26 25 25 26 26 26 26 26 27 26 25 25
9 10 10 10 10 11 11 11 12 12 12 12 12 15 17 16 15 15 16 16 17 19 21 22 23 24 25 25 26 26 27 27 27 28 28 29 29 29 30 31 31 32 33 34 34 36 37 38 41 43 44 45 47 48 49 51 52 52 52 51 50 50 49 47 46 45 44 44 44 44 44 44 43 42 41 39 37 35 33 32 31 30 28 27 27 27 27 27 27 27 28 28 28 30 30 29 30
11 11 11 11 11 11 11 11 12 12 12 13 14 14 16 17 16 17 17 17 17 19 20 22 23 24 25 25 25 25 26 26 26 27 27 27 27 27 27 27 28 29 30 32 32 33 34 35 39 44 47 47 47 49 50 51 52 53 54 55 55 54 53 51 50 49 48 48 47 46 46 46 46 46 46 45 43 41 39 38 37 36 34 33 31 31 31 32 32 32 32 32 33 34 35 34 33
11 12 11 12 12 12 12 12 12 12 13 17 17 14 14 14 16 20 19 18 18 18 19 21 23 24 25 27 28 28 29 29 29 30 29 30 30 29 29 30 30 30 30 30 31 32 33 37 42 46 49 49 50 51 52 53 53 53 54 55 57 58 59 58 56 55 54 53 52 50 50 50 49 49 49 49 49 48 46 45 43 42 41 39 38 38 38 38 39 39 39 39 39 39 40 39 38
14 14 13 14 13 12 13 14 15 15 17 26 31 28 25 25 31 38 37 35 35 33 34 38 40 43 45 47 49 51 52 53 53 52 50 49 48 47 47 47 47 47 46 44 41 37 35 40 48 51 47 44 46 49 52 54 54 55 57 57 58 59 61 62 63 62 61 59 58 56 56 55 55 54 54 54 54 54 53 52 51 49 49 48 46 46 45 45 46 46 47 46 46 46 45 45 44
13 13 14 16 18 24 33 39 42 42 45 54 60 61 61 61 65 70 70 72 75 74 76 79 80 81 83 85 86 88 88 89 88 87 86 86 85 84 83 82 81 79 76 73 67 59 50 45 45 47 45 43 45 49 54 58 59 59 59 60 61 62 63 64 65 66 67 66 64 62 61 61 60 60 60 60 61 60 60 60 59 58 56 55 54 54 53 52 52 52 52 52 52 51 50 49 48
24 31 39 47 55 64 71 75 79 81 82 84 81 84 91 90 88 91 94 97 98 96 95 92 88 86 83 82 79 77 75 73 72 71 70 71 71 72 72 71 71 72 73 75 76 76 74 67 60 55 53 53 50 46 48 53 58 60 59 59 59 59 60 62 65 67 69 69 69 68 65 64 63 63 64 64 65 66 66 66 66 65 64 63 62 61 60 59 58 56 56 56 55 54 54 53 51
61 70 79 86 92 96 90 86 90 91 90 85 74 73 77 72 65 66 66 65 62 58 52 45 41 38 34 32 29 27 26 24 24 22 22 22 22 23 23 23 24 25 29 35 41 49 56 63 70 73 75 74 69 62 56 53 53 53 52 52 56 59 59 60 63 67 69 71 71 71 70 69 67 66 66 66 67 67 68 69 69 68 68 69 69 69 68 67 66 65 63 61 60 58 57 56 55
83 89 94 95 100 106 97 81 72 62 53 45 36 34 34 27 22 20 17 17 16 14 13 10 9 8 7 7 6 6 6 6 6 6 6 7 7 7 7 7 8 8 8 10 12 15 18 24 32 41 48 52 55 58 61 63 62 61 61 63 66 63 59 61 66 70 74 75 75 74 73 73 73 71 70 70 70 69 69 70 71 71 71 70 70 72 72 73 73 73 72 72 70 68 66 64 63
80 78 79 74 74 79 70 52 37 26 17 12 9 10 8 6 6 6 5 6 6 6 6 6 6 6 6 6 6 6 6 6 6 7 7 7 7 7 7 7 7 8 8 7 7 8 8 8 9 10 12 14 16 19 25 32 39 47 58 71 78 73 63 60 64 70 77 81 83 82 80 79 79 79 79 78 77 76 74 72 72 73 74 75 74 74 76 77 78 78 79 79 79 79 78 76 74
59 49 42 35 30 29 24 16 11 9 7 4 4 5 5 5 6 5 6 7 7 7 7 7 7 7 7 7 7 7 7 7 7 7 7 7 7 7 7 7 7 7 7 7 7 7 7 7 8 8 8 8 8 8 8 9 11 14 21 34 52 70 77 75 71 72 77 83 87 88 88 88 87 87 88 88 88 87 85 81 77 75 76 78 80 81 82 83 83 83 83 84 84 86 86 85 85
28 22 15 11 8 7 7 6 5 5 5 5 6 6 6 8 8 7 7 7 8 8 7 7 7 7 7 7 7 7 7 7 7 6 6 6 6 6 6 6 7 7 7 7 7 7 7 7 7 7 7 7 7 8 8 9 9 9 9 9 16 33 58 76 86 90 91 93 95 95 95 95 95 94 93 93 93 91 88 85 83 80 77 78 81 85 88 91 92 91 90 88 87 87 89 90 92
9 7 5 4 5 5 6 6 6 7 7 6 7 7 7 9 10 8 7 8 8 8 7 8 7 7 7 7 7 7 7 7 7 7 7 7 7 8 8 8 8 9 9 10 10 10 10 10 9 9 9 9 8 8 8 8 9 9 10 11 10 11 19 35 56 76 91 100 100 99 100 101 101 101 99 98 97 95 93 92 90 88 84 81 81 84 88 93 97 98 97 94 91 89 88 88 91
4 4 5 5 6 6 7 8 8 9 9 8 8 8 8 9 9 8 8 9 8 7 7 7 7 7 7 7 8 8 8 9 10 10 11 11 11 11 11 12 12 12 13 14 15 15 15 15 15 14 13 12 11 10 10 10 10 10 10 11 13 13 12 12 18 34 60 89 101 100 100 100 101 102 101 100 100 100 100 100 99 97 94 91 88 88 90 93 97 100 99 97 93 91 89 88 87
5 5 6 6 6 7 8 8 9 9 9 10 10 9 8 8 8 8 8 8 7 8 8 8 9 9 10 11 11 11 12 13 14 15 15 15 16 16 16 17 18 19 19 20 20 20 21 22 21 21 19 18 17 15 14 12 11 12 12 12 13 13 14 15 14 14 26 55 82 95 100 101 101 100 100 100 100 100 101 102 102 101 100 99 98 97 96 97 99 101 101 99 96 94 92 90 88
6 7 7 8 8 8 9 9 9 9 9 9 9 8 8 7 7 8 8 8 9 10 11 12 13 13 14 14 15 15 16 17 18 19 20 20 21 21 22 22 23 24 25 26 26 26 26 27 27 26 25 23 22 21 20 18 16 15 14 15 16 17 17 16 17 16 15 23 40 60 79 93 98 99 99 100 101 100 101 101 100 100 100 100 100 101 102 103 102 102 102 101 101 100 98 95 92
Wind_Speed
20 20 20 19 18 18 17 18 18 18 19 20 18 19 21 22 23 25 25 24 26 27 27 28 29 30 31 31 31 31 31 30 30 32 31 31 30 29 29 30 31 32 32 32 31 31 31 31 31 31 31 31 32 31 31 30 28 29 29 28 29 32 34 34 36 37 38 38 38 41 43 39 37 37 37 37 37 36 35 34 33 33 33 34 34 34 34 34 34 34 34 34 34 34 33 33 33
20 20 19 19 18 19 18 18 19 19 20 21 20 21 22 23 24 26 26 27 27 28 29 29 30 30 31 32 32 32 32 30 31 33 33 33 32 31 31 31 31 31 31 32 32 31 31 31 31 31 31 32 32 30 31 30 28 30 30 29 31 33 33 32 34 35 35 36 38 41 43 42 39 38 38 39 39 38 38 37 36 36 35 35 35 35 35 35 35 35 35 35 35 35 34 34 34
20 19 19 19 19 19 20 20 21 20 22 22 22 25 25 26 28 28 28 29 30 31 31 31 31 31 32 32 32 33 32 32 32 34 34 33 33 32 32 32 31 31 31 32 32 32 31 31 31 32 32 32 33 31 33 31 29 32 31 30 31 33 33 31 31 33 32 31 33 38 41 41 41 41 39 39 39 41 41 40 39 38 37 36 36 35 35 35 35 35 35 35 35 35 35 35 34
20 19 19 19 20 20 21 21 22 22 23 23 24 27 28 30 30 29 30 31 33 33 33 33 33 32 32 32 32 33 33 33 33 34 34 33 34 33 33 33 33 32 31 32 32 32 31 31 32 32 32 33 34 33 34 32 31 34 31 31 32 33 34 31 31 32 31 29 29 32 34 34 37 40 41 40 40 40 39 38 38 38 37 36 36 36 36 35 35 36 36 36 36 36 36 35 35
20 20 20 20 21 21 21 22 22 23 24 23 25 27 29 31 30 30 31 32 33 33 34 33 33 32 32 32 32 33 33 34 33 34 34 33 34 33 33 34 34 33 32 32 32 32 32 31 32 32 33 33 33 33 33 33 33 34 32 32 34 35 33 31 31 33 33 31 30 31 31 31 32 34 36 37 37 36 35 34 35 36 36 36 36 36 36 36 36 36 36 36 37 37 36 36 36
21 21 21 21 22 22 22 22 22 23 23 24 26 28 29 31 30 29 31 31 32 32 32 32 32 32 31 31 32 33 33 34 34 34 35 34 34 33 33 33 34 34 33 33 32 32 32 31 31 31 32 34 35 34 33 33 33 33 32 33 35 37 34 31 31 32 33 32 32 34 34 34 33 33 33 33 33 33 34 34 35 35 36 36 37 37 37 37 37 37 37 37 37 37 37 37 36
22 22 22 22 22 23 22 22 22 22 23 24 26 28 29 30 29 29 30 30 31 31 31 31 31 31 30 30 31 32 34 35 34 35 35 35 34 33 32 32 33 34 34 33 33 33 32 32 32 31 31 32 34 35 34 33 33 32 32 33 35 36 34 32 32 32 32 32 33 34 35 36 36 36 35 34 33 33 33 34 34 35 36 36 37 37 38 38 38 38 38 38 38 38 38 38 37
22 22 22 22 23 22 21 20 21 22 23 26 27 29 30 30 30 30 32 32 32 32 31 31 31 31 30 31 31 31 32 33 33 34 35 35 34 33 32 31 32 32 33 32 32 33 33 33 33 32 32 32 33 33 33 34 34 33 33 34 35 37 34 33 33 33 33 33 35 35 35 35 35 35 36 36 36 35 35 35 35 35 35 36 37 38 39 39 39 39 39 39 39 39 39 39 38
22 21 22 22 22 21 20 20 22 23 24 27 29 31 32 32 32 33 34 34 34 34 33 33 33 32 31 32 33 32 32 31 31 32 33 34 34 33 32 32 31 31 31 31 31 32 32 33 33 33 34 34 34 33 34 34 33 34 35 34 35 36 35 35 35 34 35 34 35 37 37 36 35 34 35 35 35 35 36 37 37 37 37 37 37 38 39 39 40 40 40 41 41 41 41 40 40
21 21 22 23 23 22 21 22 23 25 27 28 30 32 33 33 33 33 33 34 35 35 35 35 34 33 33 33 34 35 34 32 32 32 32 33 33 33 32 32 31 30 30 31 31 32 31 31 32 33 33 34 34 33 34 34 34 34 34 34 35 36 36 36 36 35 36 35 35 38 38 37 36 34 34 34 34 35 36 37 38 39 39 39 39 39 39 39 39 39 40 41 42 43 43 42 41
22 22 23 24 24 23 22 23 24 26 28 30 32 33 34 34 33 32 32 33 33 34 34 35 35 34 33 33 34 37 37 35 33 33 33 33 33 32 31 30 31 31 31 31 32 33 32 32 32 33 35 36 35 34 36 36 35 35 34 35 35 36 37 36 36 36 37 37 37 38 38 38 37 36 36 36 36 37 37 37 39 41 40 40 41 41 41 40 39 40 40 41 42 43 44 43 43
23 23 24 25 24 23 23 24 26 28 29 31 33 32 32 33 33 33 32 31 31 32 33 33 35 34 33 33 34 36 39 38 36 35 35 34 33 32 31 29 30 30 32 32 32 32 32 32 33 34 35 36 35 33 35 37 36 36 35 35 36 37 38 38 38 37 37 38 38 39 40 40 38 38 38 39 40 40 38 37 39 42 42 41 42 42 42 41 40 40 41 41 42 42 43 43 43
22 23 24 25 24 23 25 25 27 29 29 31 31 30 31 32 32 32 32 31 30 31 31 32 33 34 33 32 34 35 37 39 38 37 36 35 33 32 31 30 30 29 31 32 33 32 32 30 31 34 35 34 35 33 33 35 36 37 37 37 38 39 41 40 40 39 39 39 40 41 42 42 42 41 40 40 41 42 40 38 38 40 41 42 42 42 42 41 41 41 42 42 42 42 43 44 44
22 23 24 24 23 23 25 26 28 29 29 31 30 30 31 32 32 33 33 32 32 31 30 31 31 32 32 31 32 32 34 36 37 36 36 35 34 33 33 32 31 30 30 32 33 35 34 30 28 31 33 33 34 35 36 37 38 39 39 39 39 42 44 43 42 41 40 40 41 42 44 44 44 44 43 42 42 43 43 42 42 41 40 40 41 42 42 43 43 43 43 43 43 44 45 46 47
21 21 22 23 23 25 26 27 29 30 31 32 30 31 32 32 33 34 34 33 33 32 31 31 30 31 31 30 31 31 31 33 34 34 33 33 33 33 34 34 33 32 31 31 32 35 37 36 32 30 30 32 34 36 36 35 37 40 40 40 40 42 45 44 44 43 42 42 43 44 45 46 45 44 45 45 44 44 44 44 44 43 42 41 41 43 44 44 45 46 47 46 45 46 46 47 48
21 21 22 23 24 27 27 27 28 29 31 30 29 30 32 33 33 34 35 34 33 32 32 32 31 31 32 31 30 30 30 29 30 30 30 30 30 31 33 34 35 34 33 33 33 34 36 37 36 34 32 33 34 36 36 34 35 39 41 40 39 42 46 46 45 45 44 45 45 45 46 47 46 45 46 47 47 47 48 47 46 46 45 43 43 45 46 47 49 49 49 49 48 47 47 47 47
21 22 23 24 25 27 27 27 27 26 27 27 26 27 30 32 32 32 33 33 32 31 31 33 34 33 33 32 30 29 28 27 27 28 28 29 29 29 31 33 34 34 34 35 35 35 35 36 35 36 34 33 35 36 36 35 35 39 42 40 39 42 45 46 46 45 45 46 47 47 48 48 47 47 48 48 49 49 50 50 49 48 48 46 45 46 47 48 49 50 49 50 50 49 49 48 48
22 22 23 24 25 25 25 25 25 24 23 24 25 24 25 28 29 28 28 29 30 29 30 35 36 34 34 33 30 30 29 26 26 27 27 28 28 29 30 31 33 33 34 34 35 35 36 36 35 35 34 33 35 36 37 37 37 38 40 41 41 43 45 45 46 45 46 47 47 48 49 48 48 48 49 49 50 49 50 50 50 49 49 49 49 49 49 49 49 49 49 50 50 50 50 50 50
22 23 23 24 24 24 23 24 24 23 22 22 22 22 22 23 25 25 24 25 26 27 31 37 38 34 33 33 30 28 27 26 25 25 26 27 28 29 29 29 31 32 32 33 34 34 35 35 35 35 35 35 35 35 36 37 38 39 40 41 42 44 45 46 47 46 47 48 48 48 48 47 47 48 48 49 49 49 48 49 50 50 50 50 50 51 52 52 51 50 50 51 51 51 51 51 51
22 22 23 23 22 23 23 23 23 22 21 21 20 21 21 22 23 23 22 20 22 28 31 35 36 32 30 31 29 26 26 28 26 26 27 28 29 29 30 30 30 31 31 32 32 33 33 33 34 34 35 36 35 35 37 37 38 40 40 41 43 45 46 46 46 45 45 46 47 47 47 47 46 47 48 49 49 49 48 48 49 50 51 51 50 49 49 50 50 50 50 49 50 50 51 51 51
21 21 23 23 22 22 24 23 24 24 22 21 21 22 23 23 22 21 22 20 21 26 27 30 32 30 29 30 31 28 28 30 29 28 29 29 30 30 31 31 30 31 31 31 31 32 33 33 33 34 34 35 35 35 37 37 38 39 40 41 42 44 44 44 43 41 41 42 43 43 44 45 45 46 47 47 48 48 48 49 48 48 49 50 51 51 50 49 47 48 49 48 48 48 48 49 49
21 21 22 23 23 23 24 24 24 24 23 22 22 23 25 25 22 21 22 22 21 23 25 27 28 28 28 30 31 30 30 31 31 31 31 31 31 31 32 32 31 31 31 30 31 32 33 33 33 34 34 34 35 36 37 37 38 39 39 39 39 40 41 41 40 39 40 40 40 40 41 42 43 44 45 45 45 46 47 47 47 46 45 46 47 49 50 50 48 47 48 48 48 48 48 49 49
21 21 22 23 24 24 25 25 26 25 24 23 24 25 28 26 23 22 23 23 22 22 24 25 24 25 25 26 28 28 29 30 32 33 33 33 33 33 33 33 33 33 33 32 32 33 33 34 34 35 35 35 36 37 37 38 39 39 39 38 39 39 39 39 39 39 40 40 40 41 41 41 42 43 44 44 44 45 46 46 47 47 47 46 46 46 48 49 49 49 49 48 49 49 50 50 50
22 22 23 23 25 25 25 26 26 26 25 25 26 27 30 29 24 23 23 23 23 24 25 25 25 25 25 25 26 27 28 29 30 32 32 33 33 33 33 34 35 35 35 34 35 35 35 35 35 36 36 36 37 38 38 38 40 40 40 40 40 40 40 40 39 39 39 39 40 40 41 42 43 43 43 43 43 44 45 46 47 48 49 49 48 47 47 48 48 48 49 49 49 50 50 51 51
22 23 23 24 25 25 25 25 25 25 25 25 25 27 31 30 26 24 23 25 26 27 27 27 27 27 27 27 27 27 27 28 29 30 30 31 31 31 32 33 34 34 35 36 37 36 36 36 36 36 36 37 38 38 39 40 41 41 41 42 42 41 41 41 41 41 41 41 41 42 42 43 44 44 44 44 44 44 44 45 46 47 49 50 50 49 49 49 49 49 49 49 50 50 50 50 51
23 23 23 24 25 24 24 24 24 23 23 23 23 27 31 29 26 26 26 26 28 29 28 28 28 28 28 28 28 28 28 28 28 29 29 29 30 30 31 31 31 31 32 34 35 35 36 36 36 37 37 38 39 39 40 41 42 42 42 42 42 42 42 42 42 43 43 42 42 44 44 45 48 48 47 46 45 45 45 46 47 47 48 48 49 49 49 49 49 49 49 50 50 50 50 51 51
23 23 23 24 24 23 23 22 22 22 21 20 21 27 29 26 26 27 27 26 27 28 29 29 29 28 29 29 29 29 30 30 29 29 30 30 30 30 30 30 30 31 31 31 32 34 35 35 35 36 37 38 38 39 40 42 42 42 42 42 41 42 42 41 42 43 44 44 43 46 48 48 50 49 47 46 46 46 47 48 49 49 49 49 49 49 49 49 49 49 50 50 51 51 52 52 52
23 23 22 23 23 22 21 21 21 20 20 18 20 25 26 25 25 26 26 24 24 26 28 28 27 26 27 27 28 29 29 30 30 30 30 30 29 29 29 29 30 30 30 30 31 33 34 35 35 36 37 37 37 39 40 41 42 42 43 43 42 42 41 40 44 46 47 47 46 47 48 46 46 47 47 47 48 48 50 51 51 51 52 52 52 52 51 51 51 51 51 51 51 52 52 53 53
22 22 22 22 23 22 20 19 19 19 17 15 17 22 24 24 24 24 23 20 21 23 25 25 24 23 23 24 25 25 26 26 26 26 26 26 26 26 26 27 28 29 29 29 30 31 32 35 36 36 37 37 37 38 39 40 41 42 44 44 44 45 44 44 48 51 51 50 50 50 50 48 49 51 51 51 51 52 52 53 53 53 54 54 54 54 54 54 53 53 53 53 52 52 53 53 53
21 21 21 21 22 21 19 19 18 17 15 13 15 20 24 24 23 23 20 19 20 22 23 23 23 23 22 22 23 22 23 23 22 22 23 23 23 23 23 24 25 26 26 27 28 29 31 33 35 36 38 38 38 38 38 39 40 42 43 44 45 46 47 47 50 52 53 52 53 55 55 55 56 56 55 54 54 54 54 55 55 55 55 55 56 56 56 56 55 55 55 55 54 54 54 54 54
20 20 20 21 21 20 19 18 18 16 14 11 12 19 24 25 24 22 19 19 21 22 23 24 24 24 23 23 23 22 22 21 21 21 21 22 22 22 22 22 24 24 25 25 26 27 28 30 32 34 37 39 40 40 40 40 41 42 43 44 45 46 47 48 49 51 52 52 54 56 58 59 59 58 56 55 55 55 55 56 56 57 57 57 58 58 58 58 57 57 56 56 56 55 55 55 55
20 20 20 20 21 21 19 18 18 17 15 12 11 17 24 28 26 22 21 21 22 23 23 24 25 25 25 25 24 24 23 22 21 21 21 21 21 22 22 23 24 24 25 25 26 26 27 27 28 31 34 37 39 41 42 43 43 43 43 44 45 46 46 46 48 49 50 51 52 55 57 58 58 58 57 56 56 56 56 57 58 58 58 59 59 59 59 58 58 58 57 57 56 56 56 56 56
20 20 20 21 21 22 20 19 19 18 16 14 13 14 23 30 27 24 25 24 24 25 25 26 27 27 27 27 26 25 25 24 23 23 23 23 23 23 23 24 25 26 26 26 26 27 27 27 27 28 31 34 36 39 41 43 44 45 45 46 46 46 45 45 48 50 51 53 54 55 57 57 57 58 57 57 57 57 57 58 58 58 58 59 59 58 59 58 57 57 57 57 56 56 56 56 56
21 20 21 21 21 23 23 20 19 21 19 17 17 15 22 30 28 26 27 28 27 28 28 28 29 29 29 29 29 28 27 27 26 26 27 27 27 26 26 27 27 28 28 28 28 29 29 29 29 28 29 31 33 35 38 40 42 44 45 47 48 48 47 47 50 51 53 54 54 56 56 56 57 57 57 57 58 59 59 58 58 57 57 58 57 57 57 57 57 57 56 56 56 56 55 55 56
24 23 22 22 22 23 26 24 21 22 22 20 21 19 21 27 28 28 29 30 30 31 31 31 31 32 32 32 32 32 31 30 30 31 31 31 31 31 30 30 30 31 31 31 31 31 31 30 31 30 29 30 32 33 34 35 37 39 42 44 46 48 49 49 51 51 52 52 53 54 54 54 56 57 57 57 58 58 58 58 58 56 55 55 55 56 56 56 56 55 55 55 55 55 54 54 55
25 25 25 25 24 24 27 29 25 26 26 24 24 24 25 26 26 29 31 31 32 34 35 35 35 34 34 35 35 35 35 35 35 36 36 35 35 34 34 33 33 34 34 35 35 35 35 34 34 33 31 31 33 34 34 33 34 36 37 39 41 44 47 49 51 52 53 53 54 54 53 54 56 56 56 57 58 57 56 57 57 56 56 56 55 56 56 56 56 56 55 54 54 54 54 54 55
27 27 27 27 27 26 29 31 28 29 31 29 28 29 31 29 27 28 31 32 33 35 36 37 37 38 38 38 38 38 38 39 40 40 40 39 39 38 38 38 38 38 38 38 39 39 40 39 39 38 36 35 35 35 36 36 36 36 35 36 37 39 42 45 48 49 52 54 55 55 55 56 56 55 56 57 58 58 58 59 58 56 58 59 58 58 58 58 58 58 57 55 55 56 56 56 56
30 30 29 29 29 29 31 33 31 31 34 35 33 33 35 34 32 32 32 33 34 35 37 38 39 39 40 40 40 41 41 42 43 44 44 44 43 43 43 43 42 42 42 42 42 42 43 43 42 42 41 40 38 38 38 39 40 40 38 38 38 38 40 41 43 44 48 50 52 54 56 56 55 55 56 57 57 58 60 60 58 58 59 61 61 60 60 60 60 60 59 58 58 58 58 57 57
31 32 32 31 31 33 34 34 34 34 36 38 38 38 39 38 37 38 37 36 36 36 38 40 40 41 41 41 42 43 45 45 46 46 47 47 47 48 48 48 47 46 45 45 45 45 45 45 45 45 44 43 43 41 40 40 42 43 42 42 42 42 41 41 41 42 43 45 48 51 53 54 55 56 56 57 58 59 59 59 60 61 61 62 62 61 61 62 61 61 61 60 60 60 59 58 57
33 34 34 34 34 36 37 37 36 36 38 40 41 42 43 42 42 43 42 41 39 39 40 42 43 43 43 44 44 46 47 47 47 48 49 50 51 51 51 51 51 50 50 49 48 47 47 47 47 47 47 46 46 45 43 42 43 44 45 46 46 45 44 44 44 43 43 44 46 48 50 52 54 55 56 57 59 60 60 60 61 62 62 63 63 62 63 63 63 63 63 62 62 62 61 59 58
35 36 35 35 37 38 39 40 39 40 40 42 44 44 45 45 45 47 48 46 44 43 44 44 45 46 46 46 47 47 48 48 49 50 51 52 53 54 54 54 54 54 54 53 52 51 50 49 49 49 49 49 49 48 47 46 45 47 48 49 49 48 47 48 47 47 47 47 48 48 49 51 52 54 55 56 57 59 59 60 61 62 62 62 62 62 62 62 62 62 62 62 62 61 61 60 59
38 37 36 37 39 40 41 42 42 42 44 45 46 47 48 48 47 49 51 52 50 48 47 47 48 48 48 48 48 48 49 49 50 52 53 54 55 56 57 57 57 57 57 57 56 55 54 53 53 53 53 52 52 52 51 50 49 50 51 52 52 52 51 51 51 51 51 51 51 50 50 51 51 52 54 53 54 56 56 57 58 59 59 60 60 60 61 60 60 60 60 60 60 59 59 59 58
39 38 38 39 40 41 42 43 44 44 45 48 49 50 51 51 51 51 53 55 55 53 52 51 50 50 49 49 49 49 49 50 52 53 55 57 58 59 59 59 59 60 59 59 58 57 57 57 57 57 57 56 56 55 55 54 53 53 54 54 55 55 55 55 55 54 54 54 55 54 53 54 53 54 54 54 54 55 55 55 55 56 56 57 58 59 59 59 59 59 59 59 59 58 59 58 57
39 39 39 40 41 42 43 44 45 45 46 48 49 51 52 53 53 53 54 56 56 55 55 54 53 52 51 50 49 50 51 52 54 56 57 59 60 61 61 61 60 60 60 60 60 60 60 60 60 60 60 60 59 59 59 58 58 57 57 57 58 58 58 58 59 58 58 57 58 57 57 57 57 56 57 57 57 57 57 57 57 57 57 57 58 58 59 59 59 59 59 59 59 59 59 59 58
40 40 41 42 42 43 44 45 46 47 48 49 49 51 53 54 55 54 55 56 55 55 55 55 54 53 53 53 53 53 54 55 56 57 58 60 61 62 62 62 61 60 60 60 61 62 63 63 64 63 63 62 62 62 62 62 62 61 61 61 61 61 61 61 62 62 62 62 62 61 60 60 60 60 60 60 59 59 59 60 60 60 59 59 60 60 60 61 61 61 60 60 60 60 60 61 60
40 41 42 43 43 44 45 46 47 48 50 50 50 52 53 55 57 56 56 57 56 56 57 56 56 56 56 57 57 56 56 57 57 58 58 59 60 61 62 62 62 62 62 61 61 62 63 64 65 65 65 65 65 65 65 65 65 65 65 65 65 65 65 65 65 65 65 65 65 65 64 64 64 63 63 63 63 62 62 62 62 62 62 62 62 61 62 62 63 63 63 63 62 62 62 62 61
41 42 43 44 44 45 46 47 48 49 51 52 51 53 54 56 58 58 57 58 58 59 59 60 60 60 60 60 59 59 58 58 58 59 59 60 60 61 61 62 62 62 62 62 61 60 62 64 65 65 65 66 67 66 66 66 67 67 67 68 68 69 69 69 69 69 69 69 69 68 68 67 67 67 66 66 66 66 65 65 64 64 64 64 63 63 63 63 64 64 65 65 65 64 64 64 63
43 43 44 45 46 47 48 49 49 49 51 52 52 53 54 56 58 57 56 57 57 58 59 59 60 60 61 61 60 60 59 59 58 58 58 58 59 59 60 60 61 61 61 61 61 61 62 64 66 67 68 68 69 69 68 67 67 67 67 69 70 71 71 72 73 73 73 73 72 72 71 71 71 70 70 69 70 70 69 69 68 68 68 67 67 66 66 66 66 66 66 67 67 67 67 67 66
43 44 45 46 47 47 48 49 49 49 51 52 53 53 53 55 56 55 55 55 56 56 57 58 59 60 61 61 61 61 61 61 60 60 60 59 60 60 60 60 61 61 61 62 62 62 63 64 66 69 70 69 69 70 71 71 69 68 68 69 70 72 73 74 75 76 77 77 76 75 75 75 74 74 73 73 73 73 73 73 72 72 71 71 71 71 70 70 70 70 70 70 71 71 70 70 69
44 45 46 46 47 47 49 49 50 50 51 53 55 55 55 56 56 54 54 55 55 56 57 57 58 59 60 60 60 60 61 61 60 60 60 60 60 60 61 61 61 61 61 62 62 63 63 64 65 67 69 70 70 71 73 74 74 73 72 74 75 76 77 77 77 78 78 79 80 79 78 78 77 77 76 76 75 75 76 76 76 76 75 75 75 74 74 74 74 74 74 74 74 74 74 73 73
46 46 47 47 47 48 50 51 52 53 53 54 55 56 55 55 54 52 51 52 52 53 53 54 56 57 57 58 58 58 59 59 60 60 60 61 61 61 61 62 62 62 62 62 62 62 63 64 65 66 68 69 70 71 73 75 77 78 79 79 80 80 80 80 80 79 78 79 81 81 81 81 80 80 79 78 78 77 77 78 78 78 79 79 79 78 78 77 77 77 77 76 76 76 76 75 75
48 48 48 48 48 48 50 51 52 53 53 53 51 52 53 52 50 48 48 48 49 51 53 54 55 56 56 58 58 59 60 61 61 62 62 63 63 64 64 64 64 64 64 64 64 64 64 65 65 66 67 67 68 69 70 72 74 77 79 80 80 80 81 82 81 81 80 80 80 81 82 82 81 81 81 81 80 80 80 80 80 80 80 81 81 81 80 80 79 79 79 78 78 78 78 78 77
49 49 49 49 48 49 49 50 49 49 50 50 47 47 50 51 50 49 49 50 51 53 55 56 56 57 58 60 60 61 62 63 64 64 65 65 65 65 66 66 66 65 66 66 66 67 67 67 67 67 67 67 68 68 68 69 70 72 74 76 78 80 82 83 83 84 84 84 83 83 83 83 82 82 82 81 81 82 82 82 83 83 82 83 83 83 82 82 81 81 80 80 79 80 80 80 80
48 48 48 47 46 46 46 47 47 47 48 48 46 47 49 51 53 54 53 54 55 57 58 58 59 60 61 61 61 62 63 64 64 64 64 64 64 65 65 64 64 63 63 64 64 65 66 66 66 67 67 68 68 68 68 68 69 69 70 72 74 77 80 82 83 84 84 85 85 85 85 85 85 85 84 84 84 84 84 85 85 86 86 85 85 85 84 83 83 82 81 80 80 80 81 81 81
45 44 44 43 43 43 44 46 47 48 50 51 49 49 50 52 55 57 56 56 58 60 60 60 60 60 60 60 60 60 60 61 61 61 62 62 62 62 62 62 62 62 61 61 61 62 63 64 64 64 65 66 67 68 68 67 67 68 68 69 70 72 75 78 81 83 84 84 84 85 85 85 85 85 85 85 86 86 86 86 87 88 89 88 88 87 87 86 85 84 83 82 81 81 81 82 82
43 42 42 42 42 44 45 46 47 49 51 52 53 52 52 54 57 58 57 57 58 59 59 58 59 59 58 58 58 58 58 59 59 59 60 60 61 62 62 62 62 63 63 63 63 63 63 64 65 64 64 64 65 67 68 68 67 67 67 67 68 69 71 73 76 80 82 83 84 84 84 84 83 82 82 82 82 83 84 86 87 89 90 90 90 89 89 88 87 86 85 85 84 84 84 84 85
42 42 43 44 45 46 47 48 49 50 51 52 54 53 53 55 56 55 55 56 56 56 56 56 57 57 57 57 58 59 59 59 60 60 61 61 62 64 64 64 64 65 66 66 66 66 66 66 66 67 67 66 65 66 67 67 68 68 67 67 67 67 68 69 71 74 78 81 84 85 85 85 84 84 82 81 80 80 81 82 84 86 88 89 89 89 89 89 88 88 87 87 87 87 87 88 88
41 43 44 46 47 48 50 51 51 52 52 52 53 54 54 54 54 53 54 55 55 55 55 56 57 58 59 60 61 61 62 63 63 64 65 65 65 66 67 68 68 68 68 68 69 69 69 68 68 68 69 69 68 67 67 68 67 68 68 68 68 67 67 68 68 70 73 76 80 83 86 87 87 87 86 85 83 82 81 81 81 82 84 85 86 87 87 88 88 88 88 88 88 88 89 90 90
Wind_Direction
280 280 280 281 282 283 284 286 285 286 286 285 287 285 281 278 274 273 275 275 274 276 277 276 275 275 274 274 274 273 273 273 273 273 271 269 269 268 267 266 264 264 264 265 264 264 264 263 262 262 262 261 261 262 260 261 261 257 255 255 256 256 253 250 249 248 249 249 248 249 247 239 233 235 237 239 239 239 239 238 238 239 240 240 241 241 241 241 241 240 240 240 240 240 240 240 240
279 279 280 282 283 284 285 285 286 289 287 286 287 282 280 279 276 275 276 277 276 277 276 276 276 276 276 275 275 275 274 273 272 271 270 269 269 268 267 266 265 265 265 265 264 263 262 262 262 261 261 260 260 260 260 258 252 251 253 253 256 258 253 250 250 249 250 251 250 249 246 242 239 238 238 238 239 239 238 238 237 237 238 239 240 241 242 242 242 242 241 241 241 241 241 241 241
276 277 279 282 283 284 286 286 286 287 285 286 285 281 279 278 277 278 277 277 277 277 277 277 276 277 276 276 276 276 275 273 271 271 271 271 271 269 268 267 267 266 266 265 264 263 262 261 261 260 260 259 260 258 258 257 248 248 253 252 255 257 253 250 252 252 251 252 250 248 247 245 243 241 240 240 240 239 237 237 238 238 239 239 240 241 243 243 244 244 243 242 242 242 242 242 242
275 277 280 282 284 285 287 287 287 286 284 284 281 279 279 278 278 279 279 278 278 278 277 277 277 278 277 276 275 274 274 273 272 272 273 273 272 271 269 269 267 266 265 265 264 263 262 260 259 259 259 259 259 257 254 254 251 253 254 254 257 257 255 254 254 253 251 250 246 245 246 247 245 243 242 241 240 239 237 237 238 240 241 242 243 243 244 245 245 245 244 244 243 243 243 243 243
278 280 283 284 285 285 286 286 286 285 283 282 279 278 279 280 281 281 280 281 281 280 280 280 279 278 277 276 274 273 273 273 273 273 273 273 272 272 270 268 267 266 265 264 264 263 262 261 260 258 258 258 257 255 254 253 252 254 254 255 258 256 256 258 257 255 250 248 247 246 246 247 246 244 242 241 240 241 243 242 241 242 243 244 245 246 246 247 247 247 246 245 244 244 244 244 243
283 284 285 286 286 287 287 286 285 284 282 280 279 278 278 280 283 282 282 283 283 284 284 283 282 280 279 277 275 274 272 271 272 272 273 273 273 273 271 269 267 265 264 264 263 263 262 261 260 259 258 258 256 254 255 255 253 253 254 254 258 257 256 259 261 257 250 248 250 249 248 247 246 245 243 243 244 245 246 245 244 244 245 246 247 247 248 248 248 248 247 246 246 245 244 244 244
285 287 288 288 288 288 288 286 285 283 281 280 278 278 277 279 282 284 285 286 286 286 285 284 283 283 282 279 277 275 273 272 272 273 274 274 274 274 273 271 268 266 264 264 264 263 262 262 260 260 258 258 258 255 253 255 254 253 253 253 256 258 258 259 260 258 255 254 254 252 249 248 246 245 244 244 245 246 246 245 244 245 246 247 248 248 249 249 249 248 248 247 247 246 246 245 245
287 289 290 291 291 289 289 287 285 283 282 281 279 278 279 280 283 286 287 287 286 285 284 284 283 284 284 282 279 276 275 274 274 274 273 273 273 272 271 270 268 266 265 264 264 263 261 260 260 259 258 258 259 256 252 253 254 253 253 253 254 257 259 260 259 258 258 258 257 253 250 248 247 245 245 245 245 246 246 246 245 245 246 247 247 248 249 250 250 249 248 248 247 247 247 247 247
289 291 291 291 291 290 290 287 285 284 282 281 280 279 280 284 288 288 287 285 284 283 283 282 282 282 282 282 280 279 277 276 275 274 274 274 272 270 269 267 266 266 265 264 263 262 260 260 259 259 258 258 259 258 256 254 253 252 253 254 254 257 258 259 259 259 259 259 258 253 250 249 248 246 244 243 245 247 248 249 248 245 244 245 246 247 248 249 249 250 249 249 248 248 248 248 248
290 290 291 290 289 290 291 287 285 284 281 281 280 281 285 290 291 288 285 285 284 284 283 282 281 281 280 279 279 279 277 277 276 275 273 274 273 272 269 267 265 264 263 262 261 262 262 262 261 259 258 258 258 258 259 258 257 255 254 254 255 256 257 257 258 259 258 259 258 253 250 250 250 249 247 244 244 248 251 251 250 248 245 244 245 246 248 248 249 250 250 251 250 249 248 248 249
291 292 291 289 290 292 290 285 285 283 283 283 283 287 291 292 290 288 287 286 286 285 284 283 282 279 278 278 277 277 276 275 274 273 272 273 274 275 273 270 266 263 261 260 259 261 262 262 261 259 258 257 258 259 261 261 261 260 257 255 255 256 257 257 257 258 259 259 257 255 252 250 250 250 249 246 244 248 251 251 251 251 250 247 247 247 248 249 249 250 251 251 252 251 250 249 249
292 293 291 291 294 296 291 287 286 286 287 288 289 292 292 291 291 290 290 289 287 286 285 284 282 280 278 276 275 275 275 274 272 270 270 271 272 275 276 273 268 263 260 259 258 258 259 259 258 257 257 258 259 260 260 259 259 259 259 258 258 259 259 258 258 259 260 260 259 257 255 254 254 252 249 246 244 247 251 252 251 250 250 249 248 248 248 249 250 251 252 252 253 253 251 249 249
292 292 292 294 298 297 293 291 290 291 292 291 293 294 292 292 293 293 294 292 290 288 287 284 283 282 280 278 276 274 274 273 272 270 269 269 271 272 273 272 269 265 260 258 256 255 256 257 255 254 255 257 258 257 256 257 257 257 259 261 263 264 262 260 260 261 261 261 260 259 258 257 257 255 253 250 247 248 250 252 252 250 248 248 249 250 250 249 250 252 253 252 253 254 253 251 250
292 292 294 296 298 295 293 294 293 295 294 292 296 296 294 295 295 295 294 293 292 291 289 287 285 283 282 281 278 275 273 273 274 275 274 272 271 270 269 268 267 265 261 258 256 254 253 253 252 252 253 253 255 255 255 258 259 259 260 261 264 265 264 262 262 261 261 261 260 260 259 258 257 256 255 254 251 250 250 250 251 251 250 248 249 251 252 251 249 250 252 251 251 252 253 252 250
291 292 294 296 297 295 294 296 296 297 295 296 299 297 296 295 294 293 292 292 292 292 291 289 287 284 283 281 278 277 276 277 280 280 279 276 272 269 267 265 264 262 260 258 257 255 255 254 252 250 251 252 252 253 255 257 259 261 261 261 262 262 262 262 262 262 263 262 261 260 260 259 258 257 256 254 253 252 252 251 251 250 251 250 248 249 251 251 249 248 251 252 252 252 253 253 250
292 294 295 297 297 296 297 298 298 298 299 302 303 300 299 296 294 292 290 290 290 291 291 289 287 284 282 279 279 282 283 284 285 283 281 278 274 270 267 265 264 262 261 259 257 256 257 258 257 252 249 251 252 252 252 252 253 254 256 257 256 257 260 260 261 263 263 262 261 261 260 260 259 258 256 254 253 252 253 254 255 253 252 252 251 250 249 250 250 249 250 252 254 254 254 255 252
294 296 297 297 296 297 300 301 300 302 304 307 309 306 302 300 296 292 290 290 290 291 291 287 283 281 280 282 285 287 288 288 285 283 281 279 276 272 269 267 265 264 263 261 259 258 257 259 260 259 255 252 253 253 253 252 250 248 250 251 250 254 261 262 263 264 262 261 261 260 260 260 260 259 257 256 254 253 253 254 255 255 253 252 252 251 251 250 250 251 251 252 254 254 255 255 255
296 298 298 298 298 300 302 302 303 306 309 311 314 313 309 304 299 295 293 290 290 291 288 283 280 281 284 287 289 289 289 288 286 285 283 280 277 274 271 269 268 266 265 264 263 261 260 261 262 263 262 258 256 257 258 258 254 249 248 250 250 252 258 261 262 262 262 262 262 261 261 260 260 259 258 257 256 255 254 254 254 255 254 252 251 251 253 254 253 253 254 254 254 254 254 255 255
298 299 298 298 300 302 302 302 303 307 310 313 317 317 313 306 303 302 299 294 292 288 283 280 282 286 290 291 290 291 289 285 283 282 279 276 274 271 269 267 267 266 266 266 265 264 263 263 262 262 261 260 259 258 258 259 258 254 252 254 254 253 256 258 259 260 260 261 261 261 262 261 260 259 259 258 258 257 256 256 255 255 254 253 253 253 254 256 257 256 256 256 256 255 254 254 255
299 299 298 298 300 300 299 300 302 303 306 311 314 313 310 306 307 311 308 302 291 286 286 286 288 291 293 292 288 287 284 279 275 273 272 271 270 270 269 267 265 264 264 264 265 265 264 262 261 260 260 259 258 256 255 256 258 258 257 259 259 258 259 260 261 263 263 262 260 258 257 258 258 258 258 257 257 255 255 254 254 254 252 251 251 252 254 255 255 255 255 254 254 254 253 253 254
299 297 297 298 298 296 297 297 297 299 302 305 307 305 303 303 309 313 312 305 290 292 301 298 293 291 290 288 285 282 280 278 275 272 270 269 269 269 269 268 266 265 264 263 264 264 265 264 262 261 260 259 259 257 256 255 257 258 258 259 260 261 263 264 266 267 268 267 264 260 258 257 257 257 258 258 257 255 253 253 253 253 251 249 249 250 252 253 253 253 253 253 253 253 253 253 253
297 295 295 297 297 294 294 295 294 296 299 300 300 299 297 299 305 307 306 305 301 302 304 298 292 290 286 284 283 281 278 277 276 273 270 268 267 267 267 267 267 266 265 264 263 262 261 262 261 261 259 258 257 256 255 255 256 258 258 259 261 262 262 264 265 265 266 267 266 265 263 261 260 260 261 262 261 261 259 259 259 259 258 255 252 251 251 253 254 254 254 254 254 255 255 254 254
296 294 295 296 296 295 294 294 293 294 297 297 295 295 294 295 299 301 302 303 304 299 292 290 290 288 286 284 283 281 278 276 274 273 271 270 268 267 266 266 266 265 264 262 261 261 260 259 259 259 259 259 258 257 256 256 256 257 258 258 260 261 262 263 263 264 265 266 267 267 266 265 264 264 264 264 264 265 265 265 265 265 265 263 260 257 254 253 254 254 254 254 255 255 255 255 254
296 295 296 296 295 295 295 294 294 294 295 294 293 293 291 291 295 299 299 296 293 288 286 288 289 289 289 288 288 287 284 282 279 278 277 276 274 271 269 268 267 267 266 265 263 263 262 260 259 259 258 258 259 259 259 258 258 258 258 258 258 260 262 262 263 264 265 266 267 269 270 269 268 267 267 266 266 266 266 266 266 265 265 265 263 261 258 256 255 255 255 255 255 255 255 255 255
297 297 298 296 296 297 297 297 296 296 295 293 293 291 287 291 296 295 290 288 287 286 286 289 289 290 290 290 290 290 288 287 285 285 284 282 280 278 276 274 273 273 272 270 269 267 265 264 263 262 260 258 258 259 258 258 259 259 259 259 260 261 262 264 265 265 266 266 267 269 270 271 271 270 269 269 269 268 268 267 266 265 265 265 264 264 262 260 259 258 258 257 256 256 255 255 255
298 298 299 297 297 298 299 300 300 298 295 294 294 289 288 293 295 290 286 285 286 287 288 288 288 288 288 288 288 287 287 286 285 285 284 283 282 281 279 278 277 276 274 273 273 271 268 267 266 264 262 260 260 259 259 258 259 260 260 261 261 262 263 264 266 266 267 267 268 268 268 270 271 269 268 268 268 269 269 268 268 267 266 266 266 266 265 264 263 262 262 261 260 259 259 258 258
299 299 298 297 298 300 301 301 300 298 297 298 293 288 291 295 292 289 289 287 287 288 288 288 289 289 290 290 289 289 288 287 288 288 288 288 288 288 287 286 283 280 277 275 273 272 271 270 267 266 264 262 261 261 260 260 260 261 262 262 262 264 264 266 268 268 268 268 267 267 268 269 269 266 265 265 266 267 268 268 268 268 267 267 267 266 266 265 264 264 263 263 262 262 261 261 261
300 300 299 298 300 301 302 302 301 299 301 300 292 290 292 293 291 290 290 290 289 287 287 290 292 293 293 294 293 293 292 293 294 294 295 295 295 295 294 292 290 288 285 281 277 274 273 272 269 267 266 265 263 262 261 261 261 260 260 261 261 261 261 264 266 265 264 264 263 263 265 266 264 263 265 265 266 266 266 266 267 267 267 267 267 267 266 266 265 265 264 263 262 262 262 262 262
302 302 301 301 301 302 303 303 301 303 304 301 291 289 291 294 294 292 294 296 292 288 289 293 295 297 297 297 297 297 298 298 299 300 300 299 297 296 295 293 291 290 289 286 283 279 275 272 270 268 267 266 265 263 262 261 261 260 260 260 259 259 257 255 257 259 258 259 260 260 261 261 261 263 266 266 266 265 265 265 265 266 266 267 267 267 267 267 266 266 265 265 264 263 263 262 262
304 304 303 301 302 303 304 304 304 307 307 303 292 287 291 297 295 294 299 300 294 292 294 297 299 300 300 299 299 301 302 302 303 303 301 300 299 298 297 296 293 292 290 288 286 283 280 277 274 271 269 267 265 263 262 261 260 260 260 259 259 258 257 254 255 258 259 259 260 261 261 260 261 263 265 265 265 264 264 265 264 265 265 265 266 266 266 266 266 266 266 266 266 266 265 265 264
306 305 304 303 303 303 305 306 307 309 308 304 291 286 292 296 294 296 301 299 296 295 297 300 301 301 302 301 301 301 302 302 302 301 299 298 298 299 298 297 295 294 293 291 288 286 284 283 280 276 272 269 267 265 263 261 259 258 258 258 258 258 258 258 258 259 261 263 264 264 262 261 262 263 264 265 266 265 265 264 264 264 264 264 264 264 264 264 265 265 265 266 266 266 267 267 266
308 307 306 305 306 305 307 307 306 307 305 301 290 286 291 295 297 300 300 298 296 297 299 300 300 301 301 301 301 301 300 300 300 299 297 297 297 297 297 296 296 295 294 292 290 288 286 284 283 281 278 274 271 269 266 263 261 259 258 258 258 257 258 259 261 261 261 263 264 265 265 264 264 265 265 266 266 265 265 264 263 263 263 263 263 263 263 264 264 264 265 265 265 265 265 265 265
310 310 310 309 309 308 307 307 306 304 302 298 289 282 286 293 300 301 300 299 297 298 299 299 299 300 300 300 300 299 299 299 298 297 296 295 295 295 295 295 294 294 293 292 290 288 286 284 282 281 281 279 276 274 271 269 266 263 261 260 259 258 257 257 259 259 258 258 259 262 264 265 266 266 266 266 266 265 264 264 263 263 263 263 263 263 264 264 264 264 264 264 264 264 263 263 263
312 311 311 311 311 310 308 307 306 302 301 297 289 280 280 291 300 300 298 300 298 298 299 298 298 298 299 299 298 298 298 297 297 296 295 295 294 293 293 293 292 292 291 290 289 287 286 285 283 280 280 279 278 276 275 274 271 269 267 265 263 261 259 256 256 258 258 258 259 261 263 265 266 266 266 266 266 265 264 264 264 264 264 264 264 264 264 264 264 264 263 263 263 262 262 262 261
312 311 310 310 309 310 307 306 306 300 299 295 290 284 276 286 298 297 296 298 298 298 297 297 297 297 298 298 297 297 296 295 295 294 294 294 293 293 292 290 290 290 289 288 287 285 284 283 283 282 280 278 277 276 275 275 274 273 271 270 268 266 264 260 259 259 260 260 261 262 263 264 265 265 265 265 265 265 266 267 266 265 264 264 265 265 264 264 263 263 262 262 262 261 261 261 261
308 308 308 307 307 308 303 303 305 300 298 294 290 287 281 283 290 292 293 295 296 296 295 295 296 295 296 295 295 295 294 294 294 293 292 292 291 291 291 290 290 290 289 287 286 285 284 282 281 281 279 276 276 275 275 274 274 273 272 272 271 270 267 265 263 262 261 261 262 262 262 262 263 265 266 266 266 267 267 267 267 267 267 265 264 264 264 264 263 263 262 262 262 262 261 260 260
304 305 305 305 305 304 299 300 302 299 297 294 290 288 286 287 286 284 288 291 291 291 291 292 293 293 294 293 293 292 293 293 293 293 292 291 290 289 289 289 289 289 288 287 286 285 284 283 282 281 280 277 275 275 274 274 273 273 273 273 272 271 269 268 266 265 264 263 263 263 263 262 263 264 264 266 267 268 267 266 266 267 267 266 264 263 263 263 263 263 263 262 262 262 261 260 260
301 302 302 302 302 300 296 297 298 297 295 293 292 290 288 290 288 284 284 285 286 286 287 288 289 290 291 291 291 291 291 291 291 290 289 289 288 288 288 288 288 288 287 286 286 285 284 282 282 281 281 279 277 275 275 275 275 274 273 273 272 271 271 270 270 269 267 267 267 266 264 264 263 262 263 264 266 267 267 267 267 266 265 265 264 264 264 264 264 264 264 263 263 262 262 262 262
298 299 299 300 299 296 294 294 295 293 292 291 292 290 289 292 290 288 286 284 283 283 283 284 284 285 286 286 287 287 288 288 288 287 286 286 286 286 286 287 288 287 287 286 285 284 282 280 280 280 280 279 277 275 273 274 275 275 274 273 272 272 272 272 271 271 270 270 269 267 265 265 263 262 262 262 263 263 264 265 265 264 264 265 265 265 265 265 265 265 265 264 264 264 263 264 264
297 297 298 299 297 295 294 294 293 291 290 290 290 290 290 292 291 290 288 286 285 283 282 282 282 283 283 283 283 284 284 285 284 283 283 283 284 284 285 286 286 286 286 285 283 281 279 277 277 277 278 278 276 273 271 269 269 270 271 271 272 272 272 271 270 270 270 269 268 266 266 265 263 262 262 261 262 263 263 263 264 264 265 265 265 265 265 265 265 265 265 265 265 265 265 265 265
297 296 297 298 295 294 294 294 294 293 292 290 290 290 290 291 291 290 289 288 287 286 284 283 282 283 282 282 282 282 282 282 282 281 281 281 281 282 283 283 283 283 283 283 282 280 277 275 274 274 275 274 273 271 270 267 265 265 266 267 268 269 269 268 269 269 268 267 266 266 265 264 264 263 263 263 263 263 264 264 265 266 267 267 267 267 266 266 266 266 266 266 266 266 266 266 265
296 296 297 295 293 293 293 294 294 294 293 292 292 291 291 291 292 291 291 291 291 289 288 286 285 285 284 283 282 281 280 279 279 278 278 279 279 279 280 280 280 280 280 280 279 278 276 274 273 272 272 272 270 269 268 266 264 263 263 263 264 264 264 265 265 265 266 266 266 265 265 265 265 265 266 266 266 266 267 267 268 269 269 269 268 268 268 268 267 267 267 267 267 266 266 265 264
296 297 296 293 292 293 293 293 293 293 292 293 293 293 292 293 293 293 293 293 294 293 292 291 290 288 286 284 282 280 279 277 276 275 275 275 276 276 277 277 278 278 278 278 277 276 275 274 273 272 272 271 269 267 266 265 264 262 261 261 261 262 262 262 262 262 263 264 265 265 266 266 267 267 268 268 268 268 269 269 269 269 269 269 268 268 268 268 268 268 267 267 267 266 266 265 264
296 297 295 293 293 293 293 292 292 292 291 292 293 292 291 291 292 293 293 292 293 294 294 293 291 290 287 285 282 280 277 276 275 274 274 274 274 274 275 275 275 275 275 275 275 275 274 273 272 270 270 270 268 267 265 264 263 262 261 260 259 259 259 260 260 260 260 260 261 262 264 265 265 266 267 267 267 267 268 268 268 268 268 268 268 268 268 268 268 268 268 268 268 268 268 267 266
295 295 294 294 293 293 292 292 291 291 291 292 293 291 290 290 290 291 292 291 292 292 292 292 290 289 288 286 284 282 280 278 276 276 275 274 274 274 274 274 274 274 273 273 273 273 273 272 271 270 269 269 268 267 265 264 263 262 261 260 259 258 258 258 258 259 259 258 259 259 260 261 262 263 263 264 265 265 266 266 267 267 268 268 268 268 268 268 268 269 269 269 269 269 268 268 267
295 294 293 293 293 293 292 292 292 291 291 293 293 291 291 290 291 292 292 292 292 292 291 290 290 289 288 287 286 284 282 280 279 277 276 275 275 275 275 274 274 273 273 272 272 271 270 269 268 267 268 269 269 268 266 264 263 262 261 260 259 259 258 258 257 257 257 257 258 258 258 258 259 260 261 262 263 263 263 263 264 265 265 266 266 266 267 267 268 268 268 268 268 267 267 267 266
295 294 294 294 293 293 292 292 291 291 291 292 292 291 290 290 290 291 291 291 291 291 290 289 288 288 287 286 285 284 282 281 280 279 278 278 277 276 276 275 274 273 272 272 271 270 269 267 265 264 266 269 269 268 267 265 264 263 261 260 260 259 258 258 258 257 256 256 256 257 257 258 258 259 260 261 262 262 262 261 261 261 261 262 263 263 264 265 265 266 266 266 265 264 264 264 263
297 296 296 296 295 293 293 293 292 291 291 291 292 291 290 289 289 290 291 291 290 289 288 288 287 287 286 285 285 284 284 283 283 282 281 280 279 279 278 277 277 275 274 272 271 269 267 264 263 262 264 267 267 267 266 265 264 263 262 262 261 260 259 259 258 258 257 256 256 255 256 256 257 258 258 259 261 261 262 262 261 260 260 259 259 259 260 260 261 261 262 262 262 261 261 261 260
297 297 297 296 295 294 294 294 294 293 292 292 293 291 290 289 289 291 291 290 289 288 288 288 287 286 285 285 285 285 285 285 284 284 283 282 281 280 280 279 278 278 277 275 273 272 269 266 264 263 264 265 264 264 264 264 263 263 264 264 264 264 263 262 260 259 258 257 257 256 256 255 255 256 257 257 258 260 261 262 262 262 261 260 259 259 258 258 258 258 259 259 259 259 259 259 259
298 298 298 297 296 295 295 295 294 293 292 292 292 291 290 290 290 291 291 290 289 289 288 288 287 286 286 286 287 287 287 287 287 286 286 286 285 284 284 283 282 281 280 278 277 275 274 271 268 266 266 265 264 262 262 263 262 262 263 265 266 267 266 265 264 262 260 258 257 257 256 256 256 255 255 256 257 258 259 260 261 261 262 261 261 260 259 259 259 259 259 259 260 260 261 261 261
300 300 298 298 298 297 296 296 294 293 293 292 293 293 292 292 292 293 292 291 291 290 289 288 287 288 288 288 288 288 288 288 288 288 288 287 287 286 286 285 285 284 283 282 280 279 278 276 274 271 270 269 267 265 264 263 262 261 262 264 265 265 265 266 265 264 262 260 258 257 257 257 256 256 256 256 256 257 258 258 259 260 261 261 261 261 261 260 260 260 260 260 261 261 261 262 262
301 300 299 298 298 297 296 296 295 295 294 294 296 296 295 295 295 294 293 292 291 290 289 289 289 290 290 290 289 289 289 288 288 288 288 288 288 288 287 287 287 287 286 285 285 283 282 281 279 278 276 275 273 271 269 267 265 264 264 264 263 262 262 263 264 265 264 263 261 259 258 257 257 257 257 256 256 256 257 258 259 259 260 261 261 261 261 261 260 260 260 260 260 260 260 260 261
301 301 300 300 300 299 298 298 298 297 297 298 300 299 299 299 297 296 295 294 293 291 291 291 292 292 291 291 291 291 290 290 290 289 289 289 289 289 289 290 289 289 289 288 287 286 285 284 282 281 280 279 278 276 274 272 270 268 266 265 264 262 261 261 262 263 264 265 264 262 260 258 258 258 258 258 258 257 258 258 258 259 259 260 260 261 261 260 261 261 260 260 260 260 260 260 260
302 301 301 302 301 300 300 300 300 299 299 300 302 301 301 300 298 298 298 297 296 294 294 294 294 294 293 293 293 293 292 292 291 291 291 291 290 290 290 290 290 290 289 289 289 288 287 286 285 284 283 281 280 279 277 276 274 272 270 268 265 264 262 261 261 261 262 263 264 265 264 262 260 259 259 259 259 259 259 259 259 259 258 258 259 259 260 260 260 260 260 260 260 260 261 260 260
303 303 303 304 303 303 303 303 303 302 301 302 303 302 302 299 298 299 300 299 297 297 297 297 296 296 296 295 295 294 294 294 293 293 292 292 291 291 291 290 290 290 290 290 290 289 289 288 287 286 285 284 283 281 279 278 276 274 273 271 269 266 264 263 262 261 262 262 264 265 265 264 263 261 260 260 259 259 259 259 259 259 258 258 258 258 258 258 258 258 259 259 260 260 260 260 260
306 306 306 306 306 305 304 305 304 303 303 303 303 303 302 299 299 301 301 299 298 299 300 299 298 298 297 297 296 295 295 294 294 293 293 292 292 291 291 291 290 290 290 289 289 289 289 289 288 287 286 286 285 284 282 281 279 277 275 273 272 270 267 265 264 262 261 261 263 264 265 265 263 262 261 260 259 259 258 258 258 258 257 257 257 257 257 257 257 258 258 258 259 259 260 260 260
309 309 309 308 307 306 305 305 304 303 304 304 304 304 302 300 301 302 301 300 300 301 301 300 299 299 298 297 296 295 294 294 293 293 292 292 292 291 291 290 290 289 289 289 289 288 288 288 288 287 287 286 285 284 284 283 281 280 278 276 274 272 270 268 266 264 263 261 261 262 264 264 264 263 262 261 260 259 259 258 257 257 257 257 257 257 258 258 258 259 259 259 259 259 260 260 260
310 310 309 308 307 307 306 306 306 305 305 305 304 303 302 302 302 302 300 301 302 301 300 300 299 299 298 297 296 295 294 294 294 293 292 292 291 291 290 290 289 288 288 287 287 287 286 286 286 285 285 285 284 283 282 282 281 280 279 278 276 275 273 271 269 267 265 263 262 261 262 263 264 264 264 263 262 261 260 259 258 258 257 257 258 258 259 259 259 260 260 260 260 260 260 260 260